Regional Weather Roundup
Issued by NWS

Home | Current Version | Previous Version | Graphics & Text | Print | Product List | Glossary Off
Versions: 1 2 3 4 5 6 7 8 9 10 11 12 13 14 15 16 17 18 19 20 21 22 23 24 25 26 27 28 29 30 31 32 33 34 35 36 37 38 39 40 41 42 43 44 45 46 47 48 49 50

000
ASUS43 KMKX 232100
RWRWI

WISCONSIN REGIONAL WEATHER ROUNDUP
NATIONAL WEATHER SERVICE MILWAUKEE/SULLIVAN WI
400 PM CDT WED MAY 23 2018

NOTE: "FAIR" INDICATES FEW OR NO CLOUDS BELOW 12,000 FEET WITH NO
SIGNIFICANT WEATHER AND/OR OBSTRUCTIONS TO VISIBILITY.

WIZ001-002-006>008-014>016-023>028-232200-
NORTHWEST WISCONSIN

CITY           SKY/WX    TMP DP  RH WIND       PRES   REMARKS
SUPERIOR ARPT  FAIR      77  58  51 E10       30.07F
ASHLAND        PTSUNNY   84  53  34 SW8       30.09F HX  82
HAYWARD        FAIR      79  59  50 SE7       30.11F HX  80
SIREN          FAIR      81  59  47 S7        30.10F HX  81
CUMBERLAND     FAIR      75  59  57 S7        30.12F
RICE LAKE      FAIR      78  59  50 S6        30.13F HX  80
CHETEK         PTSUNNY   79  62  56 S5        30.12S HX  80
LADYSMITH      CLOUDY    78  60  53 S7        30.15S
EAU CLAIRE     NOT AVBL
MENOMONIE      FAIR      82  58  45 SE9       30.10F HX  82
NEW RICHMOND   FAIR      78  57  47 SW8       30.11F
OSCEOLA        FAIR      78  58  49 S5        30.11F
$$

WIZ003>005-009-010-017-018-232200-
NORTH CENTRAL WISCONSIN

CITY           SKY/WX    TMP DP  RH WIND       PRES   REMARKS
MANITOWISH WTR PTSUNNY   82  53  37 W9        30.12F HX  81
ARBOR VITAE    FAIR      82  52  35 SW8       30.13S HX  81
WOODRUFF       FAIR      82  52  35 SW8       30.13S HX  81
RHINELANDER    FAIR      83  53  35 S5        30.14F HX  82
EAGLE RIVER    FAIR      78  46  32 CALM      30.12F
LAND O LAKES   FAIR      83  45  26 SW3       30.14F HX  81
PHILLIPS       FAIR      78  58  50 SW5       30.13F
TOMAHAWK       FAIR      78  53  42 S3        30.14F
MEDFORD        CLOUDY    75  58  56 SW7       30.15S
MERRILL        FAIR      79  58  48 SW9       30.14F HX  80
$$

WIZ029-030-035-036-043>047-232200-
CENTRAL WISCONSIN

CITY           SKY/WX    TMP DP  RH WIND       PRES   REMARKS
WAUSAU         NOT AVBL
MOSINEE        PTSUNNY   77  59  53 SW8       30.16F
MARSHFIELD     CLOUDY    76  61  59 S5        30.14F
STEVENS POINT  FAIR      75  59  56 S8        30.16S
WAUPACA        FAIR      80  58  47 S9        30.14F HX  81
WAUTOMA        FAIR      79  59  50 SW6       30.15F HX  80
WISC RAPIDS    FAIR      78  57  48 VRB5      30.16F
CAMP DOUGLAS   NOT AVBL
$$

WIZ011>013-019>022-031-037>040-048>050-232200-
NORTHEAST WISCONSIN

CITY           SKY/WX    TMP DP  RH WIND       PRES   REMARKS
ANTIGO         PTSUNNY   78  55  45 SW7       30.15S
SHAWANO        FAIR      83  52  34 W9        30.13S HX  82
OCONTO         FAIR      81  54  39 SE10      30.12F HX  80
STURGEON BAY   FAIR      73  58  59 SE9       30.16S HAZE
GREEN BAY      FAIR      80  52  37 S9        30.14S HX  80
MANITOWOC      FAIR      71  57  61 SE10      30.16S
APPLETON       PTSUNNY   75  54  46 S7        30.14F
CLINTONVILLE   PTSUNNY   82  55  39 SW10      30.13F HX  81
OSHKOSH        FAIR      76  59  55 SW6       30.15S
$$

WIZ032>034-041-042-053>061-232200-
SOUTHWEST WISCONSIN

CITY           SKY/WX    TMP DP  RH WIND       PRES   REMARKS
LA CROSSE      FAIR      80  63  55 S9        30.11F HX  81
SPARTA         FAIR      78  60  54 S8        30.14F
VIROQUA        FAIR      77  63  61 S8        30.15F
BOSCOBEL       FAIR      82  62  50 S5        30.13F HX  83
PRAIRIE DU CHI FAIR      80  59  49 SE6       30.13F HX  80
PLATTEVILLE    FAIR      77  64  63 SE8       30.16F
$$

WIZ056-057-062-063-064-067-068-232200-
SOUTH CENTRAL WISCONSIN

CITY           SKY/WX    TMP DP  RH WIND       PRES   REMARKS
REEDSBURG      FAIR      77  62  60 SW3       30.14F
BARABOO/DELLS  PTSUNNY   78  59  53 S7        30.14F
LONE ROCK      NOT AVBL
MINERAL POINT  FAIR      79  61  53 S7        30.17F HX  80
MADISON        PTSUNNY   77  60  55 S9        30.15S
MIDDLETON      FAIR      78  60  53 CALM      30.17S
WATERTOWN      FAIR      78  58  49 S5        30.15F
MONROE         FAIR      77  59  53 SE5       30.16F
JANESVILLE     MOSUNNY   79  57  47 CALM      30.16F HX  80
$$

WIZ051-052-058>065-066-070>072-232200-
SOUTHEAST WISCONSIN

CITY           SKY/WX    TMP DP  RH WIND       PRES   REMARKS
MILWAUKEE      PTSUNNY   73  56  54 SE14      30.16F
WAUKESHA       SUNNY     79  52  38 S6        30.17F
MILWAUKEE/TIMM SUNNY     77  52  41 E9G17     30.16F
RACINE         FAIR      71  58  63 SE12      30.19F
BURLINGTON     FAIR      79  51  37 CALM      30.16F
KENOSHA        FAIR      74  56  53 E10       30.17F
FOND DU LAC    FAIR      77  57  50 W7        30.15F
SHEBOYGAN      FAIR      74  61  63 S10       30.16S
WEST BEND      FAIR      75  54  46 SE10      30.16S
JUNEAU         FAIR      77  59  54 SW7       30.17S
$$

LSZ147-162-232200-
LAKE SUPERIOR

STATION/POSITION TIME  TEMP    WIND        PRES    WAVE
                       AIR SEA DIR/SP/G            HT/PER
                 (UTC) (F)     (DEG/KT/KT) (MB)    (FT/S)
W MID LAKE BUOY  1950   43 36   20/  4/  4 1020.4F   0
DEVILS ISLAND    2000   53      60/  7/  8 1020.1F
SAXON HARBOR     2040   61     350/  3/  6 1019.0F
$$

LMZ867-665-643>646-232200-
LAKE MICHIGAN

STATION/POSITION TIME  TEMP    WIND        PRES    WAVE
                       AIR SEA DIR/SP/G            HT/PER
                 (UTC) (F)     (DEG/KT/KT) (MB)    (FT/S)
N MID LAKE BUOY  2040   39 38  190/  8/ 10 1021.3F
NORTHPORT PIER   2040   58     150/  4/  6 1020.7F
KEWAUNEE LAKESHO 2024   53     150/  7/  9 1020.5
SHEBOYGAN LAKESH 2000   53     160/ 18/ 19 1021.5F
PORT WASHINGTON  2040   60     150/  3/  6 1022.7F
ATWATER BUOY     2007   54 50  180/  8/ 12 1021.7    1/ 2
MILWAUKEE LAKESH 2030   55     140/ 15/ 16   N/A
S MID LAKE BUOY  1950   44 40  130/  4/  4 1023.5F   0
KENOSHA   LAKESH 2000   58                 1022.0
$$

TC  - TEMPERATURE IN CELSIUS
VSB - VISIBILITY IN STATUTE MILES
WCI - WIND CHILL INDEX
HX  - HEAT INDEX





USA.gov is the U.S. government's official web portal to all federal, state and local government web resources and services.